Regional Weather Roundup
Issued by NWS Midland/Odessa, TX

Skip options and go directly to product.
Home | Oldest Version | Previous Version | Current Version | All | Graphics & Text | Save Text | Print | Product List | Glossary On

Skip product version selection by date and time.   
309
ASUS44 KMAF 291210
RWRMAF
MIDLAND AREA WEATHER ROUNDUP
NATIONAL WEATHER SERVICE MIDLAND TX
600 AM CST THU JAN 29 2015

...IN SOUTHWEST TEXAS AND SOUTHEAST NEW MEXICO...

CITY           SKY/WX    TMP DP  RH WIND       PRES   REMARKS
ALPINE         MOCLDY    44  40  88 SW5       30.28R
ANDREWS        FAIR      44  37  76 N10       30.20R WCI  38
ARTESIA        MOCLDY    46  39  76 NW13      30.26R
BIG SPRING     CLEAR     54  43  66 E8        30.19S
CARLSBAD       PTCLDY    49  37  63 NW12      30.22R
DRYDEN           N/A     53  40  61 N8        30.12R
FORT STOCKTON  PTCLDY    50  45  83 SW8       30.17R
GUAD PASS      MOCLDY    53  24  32 NE14      30.27R
HOBBS          PTCLDY    41  36  81 N10       30.23R WCI  35
MARFA          PTCLDY    39  36  87 N6        30.25S WCI  35
MIDLAND AIRPK  CLEAR     49  41  74 CALM      30.19R
MIDLAND INTL   CLEAR     45  41  86 N7        30.17R
ODESSA         CLEAR     47  40  76 NE12      30.19R
PECOS          PTCLDY    45  40  82 NW7       30.18R
PRESIDIO       FAIR      53  46  75 N3        30.15S
SEMINOLE       CLEAR     40  35  81 NW8       30.21S WCI  35
SNYDER         CLEAR    N/A N/A N/A N9        30.22R
WINK           CLEAR     43  38  82 N8        30.16R WCI  38
$$
...OTHER STATIONS IN TEXAS...

CITY           SKY/WX    TMP DP  RH WIND       PRES   REMARKS
ABILENE        PTCLDY    53  42  66 N7        30.18R
AMARILLO       PTCLDY    42  34  73 N15       30.34R WCI  34
AUSTIN         FOG       53  53 100 S6        30.15S VSB 1/2
BROWNSVILLE    CLEAR     59  58  96 SE6       30.13R
CORPUS CHRISTI PTCLDY    53  53 100 SE7       30.13S
DALLAS FTW     PTCLDY    57  40  52 NW10      30.10R
DEL RIO        CLEAR     53  44  71 E3        30.11R
EL PASO        CLOUDY    47  37  68 N10       30.19R
HOUSTON INT    CLOUDY    58  57  97 CALM      30.17R FOG
LUBBOCK        PTCLDY    44  33  65 NE16      30.25R WCI  37
SAN ANGELO     MOCLDY    52  41  66 NE8       30.16R
SAN ANTONIO    FOG       58  57  97 SW5       30.15S VSB 1/4
WACO           CLEAR     47  44  90 S5        30.14R
WICHITA FALLS  NOT AVBL
$$
...OTHER LOCATIONS IN NEW MEXICO...

CITY           SKY/WX    TMP DP  RH WIND       PRES   REMARKS
ALAMAGORDO     MOCLDY    45  36  70 S5        30.22R
ALBUQUERQUE    CLOUDY    44  30  57 NE7       30.31R
CANNON AFB     PTCLDY    41  33  75 N18       30.30R WCI  32
CLOVIS         CLEAR     39  32  75 N18       30.31R WCI  30
HOLLOMAN AFB   CLOUDY    43  37  81 N6        30.19F WCI  39
ROSWELL        CLOUDY    48  35  60 N18       30.26R
RUIDOSO        CLOUDY    41  28  60 N13G24    30.34S WCI  34
SANTA FE       CLOUDY    37  27  67 N5        30.33R WCI  33
TRUTH OR CONSE CLOUDY    47  33  58 CALM      30.24S
TUCUMCARI      MOCLDY    40  32  73 CALM      30.35R
$$

USA.gov is the U.S. government's official web portal to all federal, state and local government web resources and services.